Location: Newark
(43.0000°N, 1.6781°W)
Time: 15:02:13
(UTC+00:00)

PCSat - Pass Details

Date: 01 December 2022
Orbit: 785 x 793 km, 67.1° (Epoch: 05 February)

Event Time Altitude Azimuth Distance (km) Brightness Sun altitude
Rises 19:23:35 0° 194° (SSW) 3,261 12.9 -30.5°
Reaches altitude 10° 19:26:02 10° 189° (S) 2,337 12.1 -31.0°
Enters shadow 19:26:38 13° 187° (S) 2,121 11.8 -31.1°
